DW7500 Weather Reports


time (UTC)temp
C
wind
direction
speed
KPH
gust
KPH
rain 1hr
cm
rain 24hr
cm
rain mn
cm
humidity
%
barometer
mb
20260508104516 -1 360 0.0 0.0 0.00 0.00 0.00 95 1009.9
20260508103033 -1 360 0.0 0.0 0.00 0.00 0.00 95 1009.9
20260508101514 -1 360 0.0 0.0 0.00 0.00 0.00 95 1010.0
20260508100009 -1 360 0.0 0.0 0.00 0.00 0.00 95 1010.0
20260508094507 -1 360 0.0 0.0 0.00 0.00 0.00 94 1010.2
20260508093008 -1 360 0.0 0.0 0.00 0.00 0.00 94 1010.3
20260508091504 0 360 0.0 0.0 0.00 0.00 0.00 94 1010.3
20260508090002 0 360 0.0 0.0 0.00 0.00 0.00 94 1010.5
20260508084600 0 360 0.0 0.0 0.00 0.00 0.00 94 1010.5
20260508083059 0 360 0.0 0.0 0.00 0.00 0.00 93 1010.6
20260508081612 0 360 0.0 0.0 0.00 0.00 0.00 93 1010.6
20260508074558 0 360 0.0 0.0 0.00 0.00 0.00 93 1010.8
20260508073052 0 360 0.0 0.0 0.00 0.00 0.00 92 1011.0
20260508071551 0 360 0.0 0.0 0.00 0.00 0.00 92 1011.0
20260508070048 0 360 0.0 0.0 0.00 0.00 0.00 91 1011.0
20260508064547 0 360 0.0 0.0 0.00 0.00 0.00 91 1011.1
20260508063048 1 360 0.0 3.2 0.00 0.00 0.00 91 1011.3
20260508061543 1 360 0.0 3.2 0.00 0.00 0.00 91 1011.4
20260508060055 1 360 0.0 1.6 0.00 0.00 0.00 90 1011.4
20260508054611 1 360 0.0 3.2 0.00 0.00 0.00 90 1011.3
20260508053047 1 360 1.6 4.8 0.00 0.00 0.00 89 1011.3
20260508051535 2 360 0.0 3.2 0.00 0.00 0.00 88 1011.3
20260508050037 2 360 0.0 0.0 0.00 0.00 0.00 88 1011.3
20260508044532 2 360 0.0 0.0 0.00 0.00 0.00 87 1011.3
20260508043035 2 360 0.0 0.0 0.00 0.00 0.00 86 1011.3
20260508041527 3 360 0.0 0.0 0.00 0.00 0.00 85 1011.3
20260508040031 3 360 0.0 0.0 0.00 0.00 0.00 84 1011.2
20260508034534 3 360 0.0 1.6 0.00 0.00 0.00 83 1011.3
20260508033030 3 360 0.0 0.0 0.00 0.00 0.00 83 1011.3
20260508031524 3 360 0.0 0.0 0.00 0.00 0.00 82 1011.5
20260508030023 4 360 0.0 1.6 0.00 0.00 0.00 81 1011.5
20260508024526 4 360 1.6 3.2 0.00 0.00 0.00 79 1011.4
20260508023022 5 360 0.0 1.6 0.00 0.00 0.00 76 1011.5
20260508021522 5 360 0.0 0.0 0.00 0.00 0.00 74 1011.2
20260508020021 6 360 0.0 3.2 0.00 0.00 0.00 72 1011.1
20260508014520 7 360 0.0 1.6 0.00 0.00 0.00 69 1010.8
20260508013022 7 194 0.0 0.0 0.00 0.00 0.00 67 1010.5
20260508011522 8 360 0.0 0.0 0.00 0.00 0.00 63 1010.5
20260508010032 8 360 0.0 1.6 0.00 0.00 0.00 62 1010.5
20260508004525 8 360 0.0 3.2 0.00 0.00 0.00 57 1010.3
20260508003018 9 360 0.0 4.8 0.00 0.00 0.00 55 1010.2
20260508001517 9 360 4.8 9.7 0.00 0.00 0.00 54 1010.2
20260508000016 10 360 3.2 9.7 0.00 0.00 0.00 53 1010.1
20260507234516 10 189 6.4 12.9 0.00 0.00 0.00 53 1010.2
20260507233013 9 360 4.8 11.3 0.00 0.00 0.00 54 1010.2
20260507231512 9 215 4.8 11.3 0.00 0.00 0.00 57 1010.5
20260507230009 8 239 4.8 12.9 0.00 0.00 0.00 59 1010.7
20260507224512 8 261 8.0 12.9 0.00 0.00 0.00 58 1010.8
20260507223007 8 270 8.0 12.9 0.00 0.00 0.00 56 1011.0
20260507221508 8 246 4.8 9.7 0.00 0.00 0.00 56 1010.9
20260507220005 9 266 6.4 16.1 0.00 0.00 0.00 55 1011.1
20260507214504 9 250 12.9 19.3 0.00 0.00 0.00 54 1011.2
20260507213002 8 360 6.4 14.5 0.00 0.00 0.00 55 1011.1
20260507211502 8 360 6.4 17.7 0.00 0.00 0.00 59 1011.2
20260507210105 8 284 6.4 16.1 0.00 0.00 0.00 54 1011.3
20260507204601 8 360 4.8 20.9 0.00 0.00 0.00 53 1011.4
20260507203100 8 360 9.7 16.1 0.00 0.00 0.00 55 1011.5
20260507201557 8 360 14.5 19.3 0.00 0.00 0.00 57 1011.8
20260507200056 8 360 4.8 20.9 0.00 0.00 0.00 56 1012.0
20260507194555 8 244 11.3 20.9 0.00 0.00 0.00 48 1012.2
20260507193053 8 219 8.0 19.3 0.00 0.00 0.00 52 1012.3
20260507191553 8 252 11.3 19.3 0.00 0.00 0.00 50 1012.3
20260507190052 8 325 8.0 17.7 0.00 0.00 0.00 49 1012.4
20260507184551 8 222 8.0 14.5 0.00 0.00 0.00 49 1012.3
20260507183050 9 264 8.0 16.1 0.00 0.00 0.00 50 1012.2
20260507181546 8 267 6.4 16.1 0.00 0.00 0.00 51 1012.4
20260507180054 8 289 11.3 20.9 0.00 0.00 0.00 57 1012.5
20260507174544 8 286 8.0 14.5 0.00 0.00 0.00 55 1012.3
20260507173047 8 292 9.7 16.1 0.00 0.00 0.00 58 1012.7
20260507171558 8 306 8.0 14.5 0.00 0.00 0.00 63 1012.9
20260507170042 8 271 9.7 17.7 0.00 0.00 0.00 64 1013.1
20260507164545 8 282 8.0 20.9 0.00 0.00 0.00 65 1013.3
20260507163044 7 256 9.7 20.9 0.00 0.00 0.00 69 1013.5
20260507161541 7 263 12.9 22.5 0.00 0.00 0.00 70 1013.7
20260507160045 7 284 11.3 25.7 0.00 0.00 0.00 68 1013.8
20260507154533 7 254 6.4 24.1 0.00 0.00 0.00 70 1013.9
20260507153032 7 360 12.9 20.9 0.00 0.00 0.00 70 1013.8
20260507151528 6 360 8.0 22.5 0.00 0.00 0.00 71 1013.8
20260507150028 6 360 4.8 17.7 0.00 0.00 0.00 72 1013.8
20260507144532 6 360 9.7 19.3 0.00 0.00 0.00 75 1013.8
20260507143025 5 360 4.8 12.9 0.00 0.00 0.00 77 1013.9
20260507141524 5 360 8.0 16.1 0.00 0.00 0.00 75 1014.0
20260507140022 5 360 8.0 14.5 0.00 0.00 0.00 73 1013.9
20260507134521 5 360 4.8 14.5 0.00 0.00 0.00 73 1013.9
20260507133021 5 360 4.8 14.5 0.00 0.00 0.00 74 1013.9
20260507131518 5 360 4.8 12.9 0.00 0.00 0.00 79 1013.7
20260507130025 5 360 6.4 14.5 0.00 0.00 0.00 82 1013.5
20260507124522 4 360 3.2 8.0 0.00 0.00 0.00 89 1013.4
20260507123016 3 360 3.2 11.3 0.00 0.00 0.00 94 1013.3
20260507121514 3 360 6.4 12.9 0.00 0.00 0.00 96 1013.2
20260507120013 2 360 4.8 9.7 0.00 0.00 0.00 97 1013.1
20260507114510 0 150 3.2 4.8 0.00 0.00 0.00 95 1012.9
20260507113010 0 360 0.0 0.0 0.00 0.00 0.00 95 1012.8
20260507111503 0 360 0.0 1.6 0.00 0.00 0.00 94 1012.8
20260507110100 0 360 0.0 1.6 0.00 0.00 0.00 93 1012.6